Location: Forest
(37.3641°N, 79.2902°W)
Time: 05:38:16
(UTC+00:00)

ACS3 Solar Sail - Visible Passes

Search period start: 05 October 2024 00:00
Search period end: 15 October 2024 00:00
Orbit: 963 x 1036 km, 97.4° (Epoch: 04 October)

Date Brightness Start Highest point End Pass type
(mag) Time Alt. Az. Time Alt. Az. Time Alt. Az.
05 Oct 2.1 00:45:13 43° E 00:46:01 45° ENE 00:52:00 10° N visible
05 Oct 3.6 02:30:24 27° W 02:30:24 27° W 02:35:20 10° NW visible
05 Oct 3.6 23:32:37 10° E 23:34:58 12° ENE 23:37:17 10° NE visible
06 Oct 1.7 01:17:44 81° E 01:17:53 82° ENE 01:24:17 10° N visible
06 Oct 4.3 03:02:55 14° W 03:02:55 14° W 03:05:30 10° WNW visible
07 Oct 3.0 00:05:04 21° E 00:06:28 23° ENE 00:11:14 10° NNE visible
07 Oct 2.4 01:50:15 55° W 01:50:15 55° W 01:56:11 10° NNW visible
08 Oct 2.2 00:37:35 40° E 00:38:10 41° ENE 00:44:02 10° N visible
08 Oct 3.5 02:22:46 29° W 02:22:46 29° W 02:27:36 10° NW visible
08 Oct 3.6 23:25:46 10° ENE 23:27:10 11° ENE 23:28:35 10° NE visible
09 Oct 1.7 01:10:06 74° ENE 01:10:06 74° ENE 01:16:21 10° N visible
09 Oct 4.3 02:55:17 15° W 02:55:17 15° W 02:58:04 10° NW visible
09 Oct 3.0 23:57:26 20° E 23:58:39 21° ENE 00:03:07 10° NNE visible
10 Oct 2.3 01:42:37 59° WNW 01:42:37 59° WNW 01:48:18 10° NNW visible
11 Oct 2.3 00:29:57 37° ENE 00:30:19 37° ENE 00:36:01 10° N visible
11 Oct 3.4 02:15:07 31° WNW 02:15:07 31° WNW 02:19:50 10° NNW visible
12 Oct 1.8 01:02:27 66° ENE 01:02:27 66° ENE 01:08:24 10° N visible
12 Oct 4.2 02:47:38 17° WNW 02:47:38 17° WNW 02:50:31 10° NW visible
12 Oct 3.1 23:49:47 18° ENE 23:50:49 19° ENE 23:54:58 10° NNE visible
13 Oct 2.2 01:34:58 61° WNW 01:34:58 61° WNW 01:40:25 10° NNW visible
14 Oct 2.5 00:22:17 33° ENE 00:22:28 33° ENE 00:27:59 10° N visible
14 Oct 3.3 02:07:29 33° WNW 02:07:29 33° WNW 02:12:01 10° NNW visible
